Lid_Strength_Index
-0 -0 1 3 11 11 11 10 8 9 10 6 5 7 8 7 9 12 2 1 0 0 -0 -1 -1 -2 -1 -1 -1 -2 -2 -2 -2 -2 -2 -2 -2 -2 -2 -2 -2 -2 -2 -2 -2 -2 -2 -1 -2
0 1 2 6 12 13 13 8 9 8 7 5 5 6 7 9 5 4 3 0 -0 0 -0 -0 -1 -2 -2 -2 -1 -2 -2 -2 -2 -2 -2 -2 -2 -2 -2 -2 -2 -2 -2 -2 -2 -2 -2 -1 -1
0 1 6 10 10 12 12 8 7 7 6 6 7 5 6 7 4 3 1 0 -0 -0 -0 -1 -1 -1 -2 -2 -2 -1 -2 -2 -2 -2 -2 -2 -2 -2 -2 -2 -2 -2 -2 -2 -2 -2 -2 -2 -1
2 4 6 10 10 8 8 7 6 7 6 5 6 8 5 3 3 2 0 0 0 0 -0 -1 -1 -1 -2 -2 -2 -2 -1 -2 -2 -2 -2 -2 -2 -2 -2 -2 -1 -1 -2 -2 -2 -2 -2 -2 -1
3 6 11 10 9 7 6 5 5 7 7 6 6 8 7 3 1 1 1 0 1 0 -0 -1 -1 -1 -1 -1 -2 -2 -2 -2 -2 -2 -2 -2 -2 -2 -2 -1 -1 -1 -1 -2 -2 -2 -1 -1 -1
6 6 12 12 10 8 7 5 6 7 6 6 7 7 7 2 2 1 1 1 0 0 -0 -0 -1 -1 -1 -1 -1 -1 -2 -2 -2 -2 -2 -2 -2 -2 -2 -1 -1 -1 -1 -1 -1 -2 -2 -1 -1
7 10 12 11 9 8 7 5 6 7 7 7 5 9 6 4 2 1 1 0 0 -0 -0 -0 -0 -1 -1 -2 -2 -1 -1 -2 -2 -2 -2 -2 -2 -1 -1 -2 -1 -1 -1 -1 -1 -1 -2 -2 -1
6 8 11 10 11 9 6 5 5 6 7 4 4 8 8 4 1 1 1 1 0 0 0 0 0 -0 -0 -0 -2 -1 -1 -2 -2 -2 -1 -2 -1 -1 -1 -1 -1 -2 -1 -1 -1 -1 -1 -1 -1
4 10 12 11 10 9 5 6 4 4 5 5 4 5 3 2 1 2 2 2 1 1 0 0 0 0 0 0 -1 -1 -1 -2 -2 -2 -2 -1 -0 -1 -2 -1 -1 -1 -1 -1 -1 -1 -1 -1 -1
7 10 9 7 7 8 6 6 6 6 6 6 5 3 2 2 2 3 3 3 3 2 1 0 0 0 -0 -0 0 -0 -0 -0 -0 -0 -0 -0 -0 -1 -1 0 -0 -1 -1 -1 -1 -1 -1 -1 -0
6 8 6 6 5 6 7 6 5 7 7 6 7 5 3 3 3 3 3 3 2 2 1 1 1 0 0 -0 -0 0 0 0 -0 -0 -0 -0 0 0 -1 -0 0 -0 -1 -0 -1 -0 -0 -0 0
7 5 5 6 5 6 7 6 6 6 6 4 4 4 3 4 4 3 3 3 2 2 1 1 0 0 0 -0 -0 0 -0 0 -0 -0 -0 0 0 0 0 0 0 0 -0 0 0 0 0 0 0
7 6 5 5 5 5 5 6 7 6 5 3 3 3 4 4 3 3 2 2 2 2 1 1 0 0 0 0 0 1 0 0 0 0 -0 -0 0 0 0 0 0 0 0 0 0 0 0 0 0
5 6 5 5 5 5 6 7 6 6 4 4 4 4 4 4 3 3 3 3 2 2 1 1 1 0 0 0 0 0 0 0 0 0 0 -0 -0 0 0 0 0 0 1 0 0 0 0 0 0
5 7 6 6 5 6 5 8 8 5 4 5 5 4 4 3 3 3 3 3 2 2 1 1 1 0 0 0 0 0 0 0 0 0 0 0 0 0 0 1 0 0 0 0 0 0 0 0 0
8 8 10 7 6 6 7 12 7 5 5 6 5 4 4 4 3 3 2 2 2 1 2 1 0 0 0 0 0 0 1 0 0 0 0 -0 -0 0 1 1 0 0 0 0 0 0 1 1 1
9 11 10 9 7 7 8 10 7 5 6 6 6 5 5 4 3 3 2 2 2 1 1 1 1 1 0 0 0 0 0 0 0 0 0 0 -0 -0 0 0 0 2 1 1 1 1 1 2 1
11 11 10 10 8 8 8 10 7 6 6 6 6 5 5 5 4 3 2 2 1 1 1 1 1 1 0 0 0 0 1 1 0 0 0 0 0 -0 0 0 1 1 1 1 1 1 1 1 1
8 9 10 8 7 8 9 9 8 6 6 6 6 6 5 5 4 3 2 2 2 1 2 1 1 1 1 1 2 2 2 1 1 0 0 0 0 0 0 0 0 0 1 1 1 1 2 2 1
9 9 10 8 6 8 9 9 7 7 6 6 6 6 5 5 4 4 3 2 2 2 2 2 1 1 1 1 1 1 1 1 1 0 1 0 0 0 0 0 1 1 1 1 1 1 2 2 1
9 10 9 10 8 7 9 11 10 7 6 6 5 5 5 5 5 4 4 3 2 2 2 2 1 1 1 1 1 1 1 1 1 1 1 2 2 0 0 0 1 0 1 1 1 1 2 3 2
12 8 8 8 10 13 9 16 12 9 8 7 6 6 5 5 4 4 4 3 3 2 2 1 1 1 1 1 1 2 3 4 2 2 1 0 0 1 0 0 1 1 0 1 1 1 2 2 3
9 7 8 9 10 12 11 13 12 9 10 8 7 6 5 4 4 4 4 3 2 2 2 1 1 1 2 4 1 2 2 2 2 2 1 1 1 0 0 0 1 1 0 1 1 1 1 1 2
6 8 9 10 12 15 12 12 14 11 10 7 6 5 5 4 4 4 3 3 3 2 2 2 2 3 3 3 1 2 2 2 2 2 2 2 1 1 1 0 0 1 0 1 1 1 1 1 2
8 10 14 15 15 15 11 12 13 9 7 7 6 6 5 4 4 4 4 3 3 3 2 2 2 3 2 1 1 1 2 2 2 2 2 2 2 2 1 1 1 1 1 0 1 1 1 1 2
10 11 14 18 16 14 11 13 11 7 6 6 5 5 5 4 4 4 4 3 3 3 2 2 3 2 2 2 2 1 1 1 1 2 2 2 2 1 1 1 1 1 1 0 0 1 1 1 1
9 11 10 13 13 15 13 11 8 7 7 6 6 5 6 5 4 4 3 3 3 3 3 2 2 2 2 2 1 1 2 2 1 1 2 1 1 1 1 1 1 1 0 0 1 1 1 2 1
9 8 12 13 16 17 13 13 13 10 9 7 7 6 5 5 4 4 3 3 3 2 2 2 2 2 2 1 1 1 1 1 1 1 2 1 1 1 1 1 1 1 1 1 1 2 1 1 2
10 11 11 11 13 15 16 14 10 9 7 7 7 6 6 5 4 4 3 3 3 2 2 2 2 2 2 2 1 1 2 1 1 1 1 1 1 1 1 1 1 1 1 1 1 1 1 1 2
8 10 10 13 14 13 13 13 7 7 6 6 6 5 5 5 4 4 3 3 3 3 3 2 2 2 2 2 1 3 2 1 1 1 1 1 1 1 1 1 1 1 1 1 1 2 1 2 2